Location: Newark
(41.0400°S, 62.7845°W)
Time: 20:04:49
(UTC+00:00)

Courier 1B Rocket - Pass Details

Date: 05 December 2021
Orbit: 920 x 1202 km, 28.2° (Epoch: 15 January)

Event Time Altitude Azimuth Distance (km) Brightness Sun altitude
Rises 13:12:17 0° 324° (NW) 3,891 8.0 49.9°
Reaches altitude 10° 13:15:56 10° 342° (NNW) 2,990 7.7 50.6°
Maximum altitude 13:20:43 18° 22° (NNE) 2,479 7.8 51.5°
Drops below altitude 10° 13:25:38 10° 62° (ENE) 3,104 8.5 52.4°
Sets 13:29:32 0° 79° (E) 4,095 8.8 53.1°
